Valparaiso, IN

10:55 AM CDT on September 23, 2017 (GMT -0500)
Porter County Municipal

Weather History for KVPZ - June, 2013

Change the Weather History Date:

Wednesday, June 5, 2013

  Actual Average Record
Temperature  
Mean Temperature 67 °F 66 °F  
Max Temperature 79 °F 77 °F 89 °F (2005)
Min Temperature 55 °F 55 °F 41 °F (1998)
Degree Days  
Heating Degree Days 0 3  
Month to date heating degree days 27 15  
Since 1 June heating degree days 27 15  
Since 1 July heating degree days 6083 6294  
Cooling Degree Days 2 4  
Month to date cooling degree days 7 17  
Year to date cooling degree days 108 64  
Since 1 June cooling degree days 7 17  
Growing Degree Days 16 (Base 50)    
Moisture  
Dew Point 49 °F    
Average Humidity 53    
Maximum Humidity 80    
Minimum Humidity 35    
Precipitation  
Precipitation 0.00 in 0.14 in 1.04 in (2001)
Month to date precipitation 0.08 0.67  
Year to date precipitation 13.71 13.65  
Sea Level Pressure  
Sea Level Pressure 30.01 in    
Wind  
Wind Speed 7 mph (East)    
Max Wind Speed 14 mph    
Max Gust Speed 21 mph    
Visibility 10 miles    
Events      
T = Trace of Precipitation, MM = Missing Value Source: NWS Daily Summary

Daily Weather History Graph

Daily Weather History Graph

Search for Another Location

Airport or City:

Trip Planner

Search our weather history database for the weather conditions in past years. The results will help you decide how hot, cold, wet, or windy it might be!

Date:

Astronomy

Jun. 05, 2013 Rise Set
Actual Time 5:15 AM CDT 8:18 PM CDT
Civil Twilight 4:41 AM CDT 8:51 PM CDT
Nautical Twilight 3:59 AM CDT 9:34 PM CDT
Astronomical Twilight 3:08 AM CDT 10:25 PM CDT
Moon 3:20 AM CDT (6/5) 5:43 PM CDT (6/5)
Length of Visible Light 16h 10m
Length of Day
15h 03m
Waning Crescent, 8% of the Moon is Illuminated
Jun 5
Waning Crescent
Jun 8
New
Jun 16
First Quarter
Jun 23
Full
Jun 29
Last Quarter

Hourly Weather History & Observations

Time (CDT) Temp. Dew Point Humidity Pressure Visibility Wind Dir Wind Speed Gust Speed Precip Events Conditions
12:53 AM 57.0 °F 50.0 °F 77% 30.09 in 10.0 mi NE 4.6 mph - N/A   Clear
1:53 AM 57.0 °F 50.0 °F 77% 30.09 in 10.0 mi NE 4.6 mph - N/A   Clear
2:53 AM 57.0 °F 50.0 °F 77% 30.09 in 10.0 mi ENE 3.5 mph - N/A   Clear
3:53 AM 55.9 °F 50.0 °F 80% 30.08 in 10.0 mi East 6.9 mph - N/A   Scattered Clouds
4:53 AM 57.0 °F 48.9 °F 74% 30.09 in 10.0 mi East 6.9 mph - N/A   Clear
5:53 AM 57.9 °F 46.9 °F 67% 30.09 in 10.0 mi East 8.1 mph - N/A   Scattered Clouds
6:53 AM 57.9 °F 46.0 °F 65% 30.11 in 10.0 mi East 9.2 mph - N/A   Overcast
7:53 AM 62.1 °F 44.1 °F 52% 30.09 in 10.0 mi East 9.2 mph - N/A   Mostly Cloudy
8:53 AM 66.0 °F 45.0 °F 47% 30.06 in 10.0 mi SE 11.5 mph - N/A   Clear
9:53 AM 71.1 °F 48.0 °F 44% 30.04 in 10.0 mi ESE 9.2 mph - N/A   Clear
10:37 AM 73.4 °F 50.0 °F 44% 30.05 in 2.0 mi SE 9.2 mph - N/A   Haze
10:53 AM 73.9 °F 50.0 °F 43% 30.05 in 10.0 mi ESE 9.2 mph - N/A   Clear
11:53 AM 75.9 °F 48.9 °F 38% 30.03 in 10.0 mi SE 8.1 mph - N/A   Clear
12:53 PM 77.0 °F 48.9 °F 37% 30.02 in 10.0 mi East 9.2 mph - N/A   Clear
1:53 PM 78.1 °F 48.0 °F 35% 30.00 in 10.0 mi SE 9.2 mph - N/A   Partly Cloudy
2:53 PM 78.1 °F 50.0 °F 37% 29.98 in 10.0 mi Variable 4.6 mph - N/A   Scattered Clouds
3:53 PM 78.1 °F 48.9 °F 36% 29.96 in 10.0 mi SSW 3.5 mph - N/A   Partly Cloudy
4:53 PM 75.0 °F 48.9 °F 40% 29.95 in 10.0 mi East 3.5 mph - N/A   Mostly Cloudy
5:53 PM 75.0 °F 50.0 °F 41% 29.93 in 10.0 mi East 6.9 mph - N/A   Mostly Cloudy
6:53 PM 73.0 °F 50.0 °F 44% 29.92 in 10.0 mi ESE 6.9 mph - N/A   Overcast
7:53 PM 72.0 °F 51.1 °F 48% 29.92 in 10.0 mi East 5.8 mph - N/A   Overcast
8:53 PM 69.1 °F 53.1 °F 57% 29.92 in 10.0 mi ENE 4.6 mph - N/A   Overcast
9:53 PM 68.0 °F 53.1 °F 59% 29.93 in 10.0 mi ENE 5.8 mph - N/A   Mostly Cloudy
10:53 PM 66.0 °F 48.0 °F 52% 29.93 in 10.0 mi ENE 10.4 mph - N/A   Mostly Cloudy
11:53 PM 64.0 °F 48.0 °F 56% 29.92 in 10.0 mi ENE 6.9 mph - N/A   Mostly Cloudy